When you browse on this site, cookies collect data to enhance your experience and personalize the content and advertising you see.
Visit our Privacy Policy to learn more. By continuing to use the site, you agree to this use of cookies and data.
  • In Austria
  • List of Countries
  • For 7 days
  • Water Temperature
  • Satellite Maps
  • Weather Map
  • News
  • Weather Widgets
  • user-avatar
    Login

    Hourly Weather Poreba

    Today, 21 March, Thursday

    Time Temperature Precipitation Wind Pressure Humidity
    00:00 +7°C° 0 mm 3 mps 771 mmHg 79%
    01:00 +7°C° 0 mm 3 mps 772 mmHg 84%
    02:00 +7°C° 0 mm 2 mps 771 mmHg 88%
    03:00 +6°C° 0 mm 2 mps 771 mmHg 91%
    04:00 +6°C° 0 mm 2 mps 771 mmHg 95%
    05:00 +6°C° 0 mm 2 mps 771 mmHg 96%
    06:00 +6°C° 0 mm 2 mps 772 mmHg 96%
    07:00 +6°C° 0 mm 2 mps 772 mmHg 97%
    08:00 +8°C° 0 mm 3 mps 772 mmHg 90%
    09:00 +9°C° 0 mm 3 mps 772 mmHg 83%
    10:00 +11°C° 0 mm 4 mps 772 mmHg 76%
    11:00 +12°C° 0 mm 4 mps 772 mmHg 74%
    12:00 +12°C° 0 mm 4 mps 772 mmHg 72%
    13:00 +13°C° 0 mm 4 mps 772 mmHg 70%
    14:00 +13°C° 0 mm 4 mps 771 mmHg 70%
    15:00 +13°C° 0 mm 3 mps 771 mmHg 69%
    16:00 +14°C° 0 mm 3 mps 771 mmHg 68%
    17:00 +13°C° 0 mm 3 mps 771 mmHg 72%
    18:00 +12°C° 0 mm 3 mps 771 mmHg 76%
    19:00 +13°C° 0 mm 2 mps 771 mmHg 80%
    20:00 +12°C° 0 mm 2 mps 771 mmHg 83%
    21:00 +12°C° 0 mm 2 mps 771 mmHg 86%
    22:00 +10°C° 0 mm 2 mps 771 mmHg 88%
    23:00 +10°C° 0 mm 2 mps 771 mmHg 89%

    Tomorrow, 22 March, Friday

    Time Temperature Precipitation Wind Pressure Humidity
    00:00 +10°C° 0 mm 2 mps 771 mmHg 90%
    01:00 +9°C° 0 mm 2 mps 771 mmHg 92%
    02:00 +9°C° 0 mm 2 mps 771 mmHg 93%
    03:00 +9°C° 0 mm 2 mps 771 mmHg 94%
    04:00 +10°C° 0 mm 1 mps 771 mmHg 95%
    05:00 +10°C° 0 mm 1 mps 771 mmHg 95%
    06:00 +9°C° 0 mm 1 mps 771 mmHg 96%
    07:00 +9°C° 0 mm 1 mps 771 mmHg 96%
    08:00 +11°C° 0 mm 1 mps 771 mmHg 88%
    09:00 +12°C° 0 mm 1 mps 772 mmHg 80%
    10:00 +14°C° 0 mm 1 mps 772 mmHg 72%
    11:00 +15°C° 0 mm 1 mps 771 mmHg 68%
    12:00 +16°C° 0 mm 1 mps 771 mmHg 63%
    13:00 +19°C° 0 mm 1 mps 771 mmHg 58%
    14:00 +19°C° 0 mm 1 mps 771 mmHg 57%
    15:00 +19°C° 0 mm 1 mps 770 mmHg 57%
    16:00 +17°C° 0 mm 0 mps 770 mmHg 56%
    17:00 +18°C° 0 mm 1 mps 770 mmHg 62%
    18:00 +15°C° 0 mm 1 mps 769 mmHg 68%
    19:00 +14°C° 0 mm 2 mps 769 mmHg 73%
    20:00 +13°C° 0 mm 2 mps 769 mmHg 77%
    21:00 +12°C° 0 mm 2 mps 769 mmHg 81%
    22:00 +12°C° 0 mm 2 mps 769 mmHg 86%
    23:00 +10°C° 0 mm 2 mps 769 mmHg 87%

    Day after tomorrow, 23 March, Saturday

    Time Temperature Precipitation Wind Pressure Humidity
    00:00 +10°C° 0 mm 2 mps 769 mmHg 89%
    01:00 +10°C° 0 mm 2 mps 768 mmHg 91%
    02:00 +9°C° 0 mm 2 mps 768 mmHg 91%
    03:00 +9°C° 0 mm 2 mps 767 mmHg 91%
    04:00 +9°C° 0 mm 2 mps 767 mmHg 92%
    05:00 +9°C° 0 mm 2 mps 767 mmHg 90%
    06:00 +9°C° 0 mm 2 mps 767 mmHg 89%
    07:00 +9°C° 0 mm 2 mps 767 mmHg 87%
    08:00 +12°C° 0 mm 2 mps 766 mmHg 79%
    09:00 +14°C° 0 mm 2 mps 766 mmHg 70%
    10:00 +16°C° 0 mm 2 mps 766 mmHg 61%
    11:00 +17°C° 0 mm 3 mps 766 mmHg 58%
    12:00 +18°C° 0 mm 3 mps 766 mmHg 54%
    13:00 +20°C° 0 mm 3 mps 766 mmHg 51%
    14:00 +19°C° 0.1 mm 3 mps 766 mmHg 52%
    15:00 +19°C° 0.1 mm 4 mps 766 mmHg 54%
    16:00 +19°C° 0.1 mm 4 mps 765 mmHg 56%
    17:00 +15°C° 0 mm 4 mps 766 mmHg 63%
    18:00 +13°C° 0 mm 4 mps 766 mmHg 70%
    19:00 +11°C° 0 mm 4 mps 767 mmHg 77%
    20:00 +10°C° 0 mm 4 mps 767 mmHg 74%
    21:00 +8°C° 0 mm 4 mps 768 mmHg 71%
    22:00 +8°C° 0 mm 3 mps 768 mmHg 67%
    23:00 +7°C° 0 mm 3 mps 769 mmHg 66%

    24 March, Sunday

    Time Temperature Precipitation Wind Pressure Humidity
    00:00 +5°C° 0 mm 3 mps 769 mmHg 64%
    01:00 +6°C° 0 mm 2 mps 769 mmHg 62%
    02:00 +5°C° 0 mm 2 mps 769 mmHg 63%
    03:00 +5°C° 0 mm 2 mps 769 mmHg 64%
    04:00 +4°C° 0 mm 2 mps 769 mmHg 65%
    05:00 +4°C° 0 mm 2 mps 769 mmHg 66%
    06:00 +4°C° 0 mm 2 mps 769 mmHg 66%
    07:00 +4°C° 0 mm 2 mps 769 mmHg 67%
    08:00 +6°C° 0 mm 2 mps 769 mmHg 60%
    09:00 +7°C° 0 mm 2 mps 769 mmHg 53%
    10:00 +9°C° 0 mm 2 mps 769 mmHg 45%
    11:00 +10°C° 0 mm 2 mps 768 mmHg 41%
    12:00 +12°C° 0 mm 2 mps 768 mmHg 37%
    13:00 +13°C° 0 mm 1 mps 767 mmHg 33%
    14:00 +13°C° 0 mm 1 mps 767 mmHg 33%
    15:00 +13°C° 0 mm 1 mps 766 mmHg 33%
    16:00 +13°C° 0 mm 1 mps 765 mmHg 32%
    17:00 +11°C° 0 mm 1 mps 765 mmHg 38%
    18:00 +9°C° 0 mm 2 mps 765 mmHg 43%
    19:00 +7°C° 0 mm 2 mps 765 mmHg 48%
    20:00 +7°C° 0 mm 2 mps 764 mmHg 51%
    21:00 +7°C° 0 mm 1 mps 764 mmHg 54%
    22:00 +7°C° 0 mm 1 mps 764 mmHg 57%
    23:00 +7°C° 0 mm 1 mps 764 mmHg 58%

    25 March, Monday

    Time Temperature Precipitation Wind Pressure Humidity
    00:00 +7°C° 0 mm 1 mps 763 mmHg 59%
    01:00 +7°C° 0 mm 1 mps 763 mmHg 61%
    02:00 +6°C° 0 mm 1 mps 762 mmHg 62%
    03:00 +6°C° 0 mm 1 mps 762 mmHg 64%
    04:00 +6°C° 0 mm 1 mps 762 mmHg 66%
    05:00 +4°C° 0 mm 2 mps 762 mmHg 68%
    06:00 +4°C° 0 mm 2 mps 762 mmHg 69%
    07:00 +3°C° 0 mm 3 mps 762 mmHg 71%
    08:00 +5°C° 0 mm 4 mps 761 mmHg 62%
    09:00 +6°C° 0 mm 5 mps 761 mmHg 54%
    10:00 +7°C° 0 mm 5 mps 761 mmHg 45%
    11:00 +7°C° 0 mm 6 mps 760 mmHg 49%
    12:00 +8°C° 0 mm 7 mps 760 mmHg 53%
    13:00 +8°C° 0 mm 7 mps 759 mmHg 57%
    14:00 +6°C° 0.5 mm 7 mps 759 mmHg 60%
    15:00 +6°C° 0.5 mm 8 mps 758 mmHg 63%
    16:00 +5°C° 0.5 mm 8 mps 758 mmHg 66%
    17:00 +4°C° 0.2 mm 7 mps 758 mmHg 67%
    18:00 +3°C° 0.2 mm 6 mps 758 mmHg 68%
    19:00 +3°C° 0.2 mm 5 mps 758 mmHg 68%
    20:00 +2°C° 0 mm 5 mps 758 mmHg 70%
    21:00 +2°C° 0 mm 6 mps 758 mmHg 71%
    22:00 +2°C° 0 mm 7 mps 758 mmHg 72%
    23:00 0°C° 0 mm 7 mps 757 mmHg 72%

    26 March, Tuesday

    Time Temperature Precipitation Wind Pressure Humidity
    00:00 0°C° 0 mm 7 mps 757 mmHg 72%
    01:00 0°C° 0 mm 7 mps 757 mmHg 71%
    02:00 0°C° 0 mm 7 mps 757 mmHg 70%
    03:00 0°C° 0 mm 8 mps 757 mmHg 68%
    04:00 0°C° 0 mm 8 mps 757 mmHg 66%
    05:00 0°C° 0.1 mm 8 mps 757 mmHg 63%
    06:00 0°C° 0.1 mm 8 mps 758 mmHg 59%
    07:00 0°C° 0.1 mm 8 mps 758 mmHg 56%
    08:00 0°C° 0 mm 9 mps 759 mmHg 54%
    09:00 0°C° 0 mm 9 mps 760 mmHg 52%
    10:00 0°C° 0 mm 9 mps 760 mmHg 50%
    11:00 +1°C° 0 mm 9 mps 761 mmHg 47%
    12:00 +2°C° 0 mm 9 mps 762 mmHg 45%
    13:00 +2°C° 0 mm 9 mps 762 mmHg 42%
    14:00 +2°C° 0 mm 8 mps 763 mmHg 44%
    15:00 +2°C° 0 mm 8 mps 763 mmHg 45%
    16:00 +2°C° 0 mm 7 mps 764 mmHg 47%
    17:00 +2°C° 0 mm 7 mps 765 mmHg 50%
    18:00 +1°C° 0 mm 6 mps 765 mmHg 53%
    19:00 0°C° 0 mm 5 mps 766 mmHg 56%
    20:00 0°C° 0 mm 5 mps 766 mmHg 57%
    21:00 -1°C° 0 mm 5 mps 767 mmHg 59%
    22:00 -1°C° 0 mm 4 mps 767 mmHg 60%
    23:00 -1°C° 0 mm 4 mps 767 mmHg 62%
    Show more